Regional Weather Roundup
Issued by NWS

Home | Current Version | Previous Version | Text Only | Print | Product List | Glossary Off
Versions: 1 2 3 4 5 6 7 8 9 10 11 12 13 14 15 16 17 18 19 20 21 22 23 24 25 26 27 28 29 30 31 32 33 34 35 36 37 38 39 40 41 42 43 44 45 46 47 48 49 50

063
ASUS45 KCYS 231210
RWRWY

WYOMING REGIONAL WEATHER ROUNDUP
NATIONAL WEATHER SERVICE CHEYENNE WY
600 AM MDT WED AUG 23 2017

NOTE:  "FAIR" INDICATES FEW OR NO CLOUDS BELOW 12,000 FEET
WITH NO SIGNIFICANT WEATHER AND/OR OBSTRUCTIONS TO VISIBILITY.

WYZ001-231300-
YELLOWSTONE NATIONAL PARK

CITY           SKY/WX    TMP DP  RH WIND       PRES   REMARKS
LK YELLOWSTONE   N/A     36  34  92 NW3       30.40S
6HR MIN TEMP:  36; 6HR MAX TEMP:  45;

W YELLOWSTONE  NOT AVBL

$$
WYZ002>013-054>058-071-098>099-231300-
NORTHERN WYOMING

CITY           SKY/WX    TMP DP  RH WIND       PRES   REMARKS
JACKSON        FAIR      42  32  67 NE5       30.32R
CODY           FAIR      59  35  40 CALM      30.15S
GREYBULL       FAIR      52  44  74 SE3       30.09R
6HR MIN TEMP:  51; 6HR MAX TEMP:  65;

WORLAND        FAIR      49  39  68 NE3       30.10R
6HR MIN TEMP:  49; 6HR MAX TEMP:  62;

SHERIDAN       FAIR      50  41  71 CALM      30.07S
6HR MIN TEMP:  49; 6HR MAX TEMP:  60;

BUFFALO        FAIR      65  32  29 W8        30.13S
6HR MIN TEMP:  62; 6HR MAX TEMP:  70;

GILLETTE       FAIR      53  42  66 S5        30.10F
6HR MIN TEMP:  47; 6HR MAX TEMP:  64;

HULETT         FAIR      57  46  67 SW6       30.11S
NEWCASTLE      FAIR      54  45  71 NW7       30.11S

$$
WYZ014>020-022>026-101>103-231300-
CENTRAL WYOMING

CITY           SKY/WX    TMP DP  RH WIND       PRES   REMARKS
BIG PINEY      FAIR      45  31  58 NW3       30.33R
6HR MIN TEMP:  41; 6HR MAX TEMP:  54;

PINEDALE       FAIR      41  32  70 W3        30.33S
DUBOIS         FAIR      48  27  43 NW10      30.33S
LANDER           N/A    N/A N/A N/A MISG      30.19S
RIVERTON       FAIR      56  36  47 NW13      30.19R
6HR MIN TEMP:  55; 6HR MAX TEMP:  71;

CASPER         FAIR      49  38  65 W3        30.18S
6HR MIN TEMP:  46; 6HR MAX TEMP:  59;

DOUGLAS        FAIR      50  48  93 NW5       30.16R
6HR MIN TEMP:  50; 6HR MAX TEMP:  63;


$$
WYZ021-027>030-104>119-231300-
SOUTHERN WYOMING

CITY           SKY/WX    TMP DP  RH WIND       PRES   REMARKS
EVANSTON       LGT RAIN  60  43  53 N3        30.33F
6HR MIN TEMP:  56; 6HR MAX TEMP:  61; 6HR PCP: TRACE;

KEMMERER         N/A     55  37  50 NW10      30.34S
FORT BRIDGER   FAIR      63  40  43 W12       30.35S
ROCK SPRINGS   MOCLDY    64  38  38 SW10      30.29S
6HR MIN TEMP:  60; 6HR MAX TEMP:  68;

DIXON          FAIR      52  38  58 SE6       30.33F
RAWLINS        NOT AVBL
SARATOGA         N/A     55  36  47 SE9       30.33S
LARAMIE        FAIR      48  38  68 S10       30.31F
6HR MIN TEMP:  47; 6HR MAX TEMP:  54;

CHEYENNE       FAIR      57  40  52 W7        30.22S
6HR MIN TEMP:  53; 6HR MAX TEMP:  58;

TORRINGTON     FAIR      53  52  96 E3        30.11F
6HR MIN TEMP:  52; 6HR MAX TEMP:  64;

PINE BLUFFS    FAIR      46  46 100 W7        30.18S

$$




USA.gov is the U.S. government's official web portal to all federal, state and local government web resources and services.